Погода в Овинищах

Россия / Тверская область     58˚20′22″N   37˚01′32″E
темп.,
°C
ветер,
м/с
пор.,
м/с
влажн.,
%
обл.,
%
осадки,
мм/ч
давл.,
гПа
погр.,
м
17 января, вс
вс1700:00−22˚с41097100 0.0 1012294
03:00−23˚с4109697 0.0 1013233
06:00−24˚с379767 0.0 1014161
09:00−24˚с359845 0.0 101582
12:00−20˚ссз239516 0.0 1016103
15:00−19˚сз229635 0.0 101727
18:00−20˚з229921 0.0 101720
21:00−20˚зюз239927 0.0 101834
18 января, пн
пн1800:00−18˚зюз349891 0.0 1017100
03:00−19˚юз359994 0.1 101791
06:00−17˚зюз2498100 0.1 1016101
09:00−16˚зюз239898 0.1 101775
12:00−13˚юз2496100 0.3 1017170
15:00−13˚зсз229696 0.3 101645
18:00−14˚з229875 0.0 101723
21:00−15˚зюз129887 0.1 101720
19 января, вт
вт1900:00−14˚сз129897 0.1 101720
03:00−15˚з119891 0.1 101720
06:00−13˚сз129797 0.1 101623
09:00−14˚сз129789 0.2 101720
12:00−11˚зсз129682 0.1 1017101
15:00−11˚зсз129786 0.1 101635
18:00−14˚сз129880 0.1 101620
21:00−13˚зсз129783 0.1 101720
20 января, ср
ср2000:00−14˚з229786 0.1 101735
03:00−15˚зсз229781 0.1 101823
06:00−15˚з229883 0.0 101823
09:00−16˚зюз239875 0.0 101930
12:00−14˚зюз259768 0.0 1020145
15:00−13˚зюз249774 0.0 1019127
18:00−15˚юз239764 0.0 102047
21:00−16˚юз339743 0.0 102061
21 января, чт
чт2100:00−16˚ююз359763 0.0 101998
03:00−15˚ююз379682 0.0 1019160
06:00−15˚ююз3894100 0.0 1016209
09:00−14˚ю4992100 0.0 1015239
12:00−12˚ю4895100 0.1 1013276
15:00−10˚ююз4895100 1.4 1011436
18:00−10˚ююз3796100 0.6 1011311
21:00−10˚ююз2397100 0.8 101092